This is the latest recevied weather packets stored in our database for station/object KD0SBN. If no packets are shown the sender has not sent any weather packets the latest 10 day(s).
| Time | Temp. | Humidity | Pressure | Rain* | Wind** | Luminosity | Snow |
|---|---|---|---|---|---|---|---|
| 1777687669 | 12.22° C | 50% | 1019.7 hPa | 0 mm | - | - | - |
| 1777687366 | 12.78° C | 50% | 1019.4 hPa | 0 mm | - | - | - |
| 1777687063 | 12.78° C | 48% | 1019.4 hPa | 0 mm | - | - | - |
| 1777686759 | 13.33° C | 49% | 1019.4 hPa | 0 mm | - | - | - |
| 1777686457 | 13.33° C | 47% | 1019.3 hPa | 0 mm | - | - | - |
| 1777686154 | 13.33° C | 47% | 1019.3 hPa | 0 mm | - | - | - |
| 1777685850 | 13.89° C | 47% | 1019.3 hPa | 0 mm | - | - | - |
| 1777685546 | 13.89° C | 43% | 1019.3 hPa | 0 mm | - | - | - |
| 1777685243 | 13.89° C | 43% | 1019.1 hPa | 0 mm | - | - | - |
| 1777684941 | 14.44° C | 43% | 1019.2 hPa | 0 mm | - | - | - |
| 1777684638 | 14.44° C | 43% | 1019 hPa | 0 mm | - | - | - |
| 1777684333 | 14.44° C | 42% | 1018.9 hPa | 0 mm | - | - | - |
| 1777684032 | 15° C | 42% | 1019 hPa | 0 mm | - | - | - |
| 1777683727 | 15° C | 42% | 1019 hPa | 0 mm | - | - | - |
| 1777683425 | 15° C | 39% | 1019.1 hPa | 0 mm | - | - | - |
| 1777683122 | 15° C | 40% | 1019 hPa | 0 mm | - | - | - |
| 1777682818 | 15° C | 40% | 1019 hPa | 0 mm | - | - | - |
| 1777682515 | 15° C | 40% | 1018.7 hPa | 0 mm | - | - | - |
| 1777682213 | 15.56° C | 39% | 1019.1 hPa | 0 mm | - | - | - |
| 1777681910 | 16.11° C | 39% | 1019 hPa | 0 mm | - | - | - |
| 1777681605 | 15.56° C | 38% | 1019 hPa | 0 mm | - | - | - |
| 1777681304 | 15° C | 40% | 1018.7 hPa | 0 mm | - | - | - |
| 1777681001 | 15° C | 40% | 1019.1 hPa | 0 mm | - | - | - |
| 1777680698 | 15.56° C | 40% | 1018.7 hPa | 0 mm | - | - | - |
| 1777680396 | 15.56° C | 39% | 1018.9 hPa | 0 mm | - | - | - |
* Rain latest hour (hover to see other rain measurements)
** Current wind speed in m/s (hover to see current wind gust speed)